Tracking 29967 objects as of 5-Dec-2024
HD Live streaming from Space Station
objects crossing your sky now

STARLINK-30333

Track STARLINK-30333 now!
10-day predictions
STARLINK-30333 is classified as:


NORAD ID: 57702
Int'l Code: 2023-129E
Perigee: 564.7 km
Apogee: 567.5 km
Inclination: 43.0 °
Period: 95.8 minutes
Semi major axis: 6937 km
RCS: Unknown
Launch date: August 27, 2023
Source: United States (US)
Launch site: AIR FORCE EASTERN TEST RANGE (AFETR)
Your satellite tracking list
Your tracking list is empty




NASA's NSSDC Master Catalog

Two Line Element Set (TLE):
1 57702U 23129E   24340.61268717  .00017669  00000-0  13185-2 0  9998
2 57702  43.0010  95.1055 0001979 280.4612  79.6007 15.02572354 71590
Source of the keplerian elements: AFSPC